owner,sensor,date,latitude,longitude,vertical_datum,direction_of_sea_water_velocity,sea_water_speed,upward_sea_water_velocity,qcFlag 
TABS,ioos:station:wmo:42051:1,2009-01-01T00:00:00Z,29.6350,-93.6417,2.0,280.7954249,44.95555583,-99999.0,'11111222,11111222,99999999' 
TABS,ioos:station:wmo:42051:1,2009-01-01T00:30:00Z,29.6350,-93.6417,2.0,274.0802196,49.19466333,-99999.0,'11111222,11111222,99999999' 
TABS,ioos:station:wmo:42051:1,2009-01-01T01:00:00Z,29.6350,-93.6417,2.0,277.6748047,51.74346819,-99999.0,'11111222,11111222,99999999' 
TABS,ioos:station:wmo:42051:1,2009-01-01T01:30:00Z,29.6350,-93.6417,2.0,275.5176945,43.05948444,-99999.0,'11111222,11111222,99999999' 
TABS,ioos:station:wmo:42051:1,2009-01-01T02:00:00Z,29.6350,-93.6417,2.0,272.2495471,39.75062264,-99999.0,'11111222,11111222,99999999' 
TABS,ioos:station:wmo:42051:1,2009-01-01T02:30:00Z,29.6350,-93.6417,2.0,267.6203162,42.87696351,-99999.0,'11111222,11111222,99999999' 
TABS,ioos:station:wmo:42051:1,2009-01-01T03:00:00Z,29.6350,-93.6417,2.0,266.361401,39.87035239,-99999.0,'11111222,11111222,99999999' 
TABS,ioos:station:wmo:42051:1,2009-01-01T03:30:00Z,29.6350,-93.6417,2.0,264.2192659,38.42537963,-99999.0,'11111222,11111222,99999999' 
TABS,ioos:station:wmo:42051:1,2009-01-01T04:00:00Z,29.6350,-93.6417,2.0,260.6162183,39.37688281,-99999.0,'11111222,11111222,99999999' 
TABS,ioos:station:wmo:42051:1,2009-01-01T04:30:00Z,29.6350,-93.6417,2.0,260.5090874,36.75304205,-99999.0,'11111222,11111222,99999999' 
TABS,ioos:station:wmo:42051:1,2009-01-01T05:00:00Z,29.6350,-93.6417,2.0,260.7495599,36.82891391,-99999.0,'11111222,11111222,99999999' 
TABS,ioos:station:wmo:42051:1,2009-01-01T05:30:00Z,29.6350,-93.6417,2.0,263.5708464,42.1550768,-99999.0,'11111222,11111222,99999999' 
TABS,ioos:station:wmo:42051:1,2009-01-01T06:00:00Z,29.6350,-93.6417,2.0,260.6172828,36.49825475,-99999.0,'11111222,11111222,99999999' 
TABS,ioos:station:wmo:42051:1,2009-01-01T06:30:00Z,29.6350,-93.6417,2.0,265.8500455,37.03708952,-99999.0,'11111222,11111222,99999999' 
TABS,ioos:station:wmo:42051:1,2009-01-01T07:00:00Z,29.6350,-93.6417,2.0,264.5082638,33.021546,-99999.0,'11111222,11111222,99999999' 
TABS,ioos:station:wmo:42051:1,2009-01-01T07:30:00Z,29.6350,-93.6417,2.0,262.8105977,33.32195222,-99999.0,'11111222,11111222,99999999' 
TABS,ioos:station:wmo:42051:1,2009-01-01T08:00:00Z,29.6350,-93.6417,2.0,266.6048266,29.72215504,-99999.0,'11111222,11111222,99999999' 
TABS,ioos:station:wmo:42051:1,2009-01-01T08:30:00Z,29.6350,-93.6417,2.0,263.8888277,30.06080671,-99999.0,'11111222,11111222,99999999' 
TABS,ioos:station:wmo:42051:1,2009-01-01T09:00:00Z,29.6350,-93.6417,2.0,262.1777889,34.16789429,-99999.0,'11111222,11111222,99999999' 
TABS,ioos:station:wmo:42051:1,2009-01-01T09:30:00Z,29.6350,-93.6417,2.0,263.8655742,34.06503339,-99999.0,'11111222,11111222,99999999' 
TABS,ioos:station:wmo:42051:1,2009-01-01T10:00:00Z,29.6350,-93.6417,2.0,265.0141785,33.25581152,-99999.0,'11111222,11111222,99999999' 
TABS,ioos:station:wmo:42051:1,2009-01-01T10:30:00Z,29.6350,-93.6417,2.0,262.5525162,33.09919183,-99999.0,'11111222,11111222,99999999' 
TABS,ioos:station:wmo:42051:1,2009-01-01T11:00:00Z,29.6350,-93.6417,2.0,261.1353078,31.3443743,-99999.0,'11111222,11111222,99999999' 
TABS,ioos:station:wmo:42051:1,2009-01-01T11:30:00Z,29.6350,-93.6417,2.0,257.6814086,30.98330195,-99999.0,'11111222,11111222,99999999' 
TABS,ioos:station:wmo:42051:1,2009-01-01T12:00:00Z,29.6350,-93.6417,2.0,253.9149261,29.38013785,-99999.0,'11111222,11111222,99999999' 
TABS,ioos:station:wmo:42051:1,2009-01-01T12:30:00Z,29.6350,-93.6417,2.0,256.1934501,27.78267986,-99999.0,'11111222,11111222,99999999' 
TABS,ioos:station:wmo:42051:1,2009-01-01T13:00:00Z,29.6350,-93.6417,2.0,256.8368037,31.66185402,-99999.0,'11111222,11111222,99999999' 
TABS,ioos:station:wmo:42051:1,2009-01-01T13:30:00Z,29.6350,-93.6417,2.0,253.9075865,34.88695028,-99999.0,'11111222,11111222,99999999' 
TABS,ioos:station:wmo:42051:1,2009-01-01T14:00:00Z,29.6350,-93.6417,2.0,247.4738008,31.87158139,-99999.0,'11111222,11111222,99999999' 
TABS,ioos:station:wmo:42051:1,2009-01-01T14:30:00Z,29.6350,-93.6417,2.0,240.3474073,32.21930477,-99999.0,'11111222,11111222,99999999' 
TABS,ioos:station:wmo:42051:1,2009-01-01T15:00:00Z,29.6350,-93.6417,2.0,238.4361635,33.26054269,-99999.0,'11111222,11111222,99999999' 
TABS,ioos:station:wmo:42051:1,2009-01-01T15:30:00Z,29.6350,-93.6417,2.0,246.3748795,35.48391889,-99999.0,'11111222,11111222,99999999' 
TABS,ioos:station:wmo:42051:1,2009-01-01T16:00:00Z,29.6350,-93.6417,2.0,241.5157159,36.86212691,-99999.0,'11111222,11111222,99999999' 
TABS,ioos:station:wmo:42051:1,2009-01-01T16:30:00Z,29.6350,-93.6417,2.0,243.990912,35.00505821,-99999.0,'11111222,11111222,99999999' 
TABS,ioos:station:wmo:42051:1,2009-01-01T17:00:00Z,29.6350,-93.6417,2.0,251.4899075,36.35041265,-99999.0,'11111222,11111222,99999999' 
TABS,ioos:station:wmo:42051:1,2009-01-01T17:30:00Z,29.6350,-93.6417,2.0,258.0560663,33.87328889,-99999.0,'11111222,11111222,99999999' 
TABS,ioos:station:wmo:42051:1,2009-01-01T18:00:00Z,29.6350,-93.6417,2.0,262.2394088,31.10486136,-99999.0,'11111222,11111222,99999999' 
TABS,ioos:station:wmo:42051:1,2009-01-01T18:30:00Z,29.6350,-93.6417,2.0,258.989461,37.85681577,-99999.0,'11111222,11111222,99999999' 
TABS,ioos:station:wmo:42051:1,2009-01-01T19:00:00Z,29.6350,-93.6417,2.0,252.001795,34.40341989,-99999.0,'11111222,11111222,99999999' 
TABS,ioos:station:wmo:42051:1,2009-01-01T19:30:00Z,29.6350,-93.6417,2.0,257.6337649,27.45699911,-99999.0,'11111222,11111222,99999999' 
TABS,ioos:station:wmo:42051:1,2009-01-01T20:00:00Z,29.6350,-93.6417,2.0,267.0370051,35.98809803,-99999.0,'11111222,11111222,99999999' 
TABS,ioos:station:wmo:42051:1,2009-01-01T20:30:00Z,29.6350,-93.6417,2.0,254.2052092,33.35950239,-99999.0,'11111222,11111222,99999999' 
TABS,ioos:station:wmo:42051:1,2009-01-01T21:00:00Z,29.6350,-93.6417,2.0,236.1458451,31.05501731,-99999.0,'11111222,11111222,99999999' 
TABS,ioos:station:wmo:42051:1,2009-01-01T21:30:00Z,29.6350,-93.6417,2.0,224.8224453,34.28777187,-99999.0,'11111222,11111222,99999999' 
TABS,ioos:station:wmo:42051:1,2009-01-01T22:00:00Z,29.6350,-93.6417,2.0,269.7481737,22.79021939,-99999.0,'11111222,11111222,99999999' 
TABS,ioos:station:wmo:42051:1,2009-01-01T22:30:00Z,29.6350,-93.6417,2.0,274.5701759,27.48738074,-99999.0,'11111222,11111222,99999999' 
TABS,ioos:station:wmo:42051:1,2009-01-01T23:00:00Z,29.6350,-93.6417,2.0,258.1808779,23.63096486,-99999.0,'11111222,11111222,99999999' 
TABS,ioos:station:wmo:42051:1,2009-01-01T23:30:00Z,29.6350,-93.6417,2.0,256.6158754,27.26034666,-99999.0,'11111222,11111222,99999999' 
TABS,ioos:station:wmo:42051:1,2009-01-02T00:00:00Z,29.6350,-93.6417,2.0,256.2869423,30.92135993,-99999.0,'11111222,11111222,99999999' 
TABS,ioos:station:wmo:42051:1,2009-01-02T00:30:00Z,29.6350,-93.6417,2.0,255.2428303,35.29414966,-99999.0,'11111222,11111222,99999999' 
TABS,ioos:station:wmo:42051:1,2009-01-02T01:00:00Z,29.6350,-93.6417,2.0,249.2829354,37.56918551,-99999.0,'11111222,11111222,99999999' 
TABS,ioos:station:wmo:42051:1,2009-01-02T01:30:00Z,29.6350,-93.6417,2.0,251.9235141,28.78045344,-99999.0,'11111222,11111222,99999999' 
TABS,ioos:station:wmo:42051:1,2009-01-02T02:00:00Z,29.6350,-93.6417,2.0,248.5652092,21.4538225,-99999.0,'11111222,11111222,99999999' 
TABS,ioos:station:wmo:42051:1,2009-01-02T02:30:00Z,29.6350,-93.6417,2.0,249.1750304,26.46914619,-99999.0,'11111222,11111222,99999999' 
TABS,ioos:station:wmo:42051:1,2009-01-02T03:00:00Z,29.6350,-93.6417,2.0,246.9714268,24.28523214,-99999.0,'11111222,11111222,99999999' 
TABS,ioos:station:wmo:42051:1,2009-01-02T03:30:00Z,29.6350,-93.6417,2.0,243.2830146,27.0475729,-99999.0,'11111222,11111222,99999999' 
TABS,ioos:station:wmo:42051:1,2009-01-02T04:00:00Z,29.6350,-93.6417,2.0,245.0533171,25.01369425,-99999.0,'11111222,11111222,99999999' 
TABS,ioos:station:wmo:42051:1,2009-01-02T04:30:00Z,29.6350,-93.6417,2.0,251.4145817,22.93607857,-99999.0,'11111222,11111222,99999999' 
TABS,ioos:station:wmo:42051:1,2009-01-02T05:00:00Z,29.6350,-93.6417,2.0,255.9345658,19.29856212,-99999.0,'11111222,11111222,99999999' 
TABS,ioos:station:wmo:42051:1,2009-01-02T05:30:00Z,29.6350,-93.6417,2.0,260.5470698,19.24125776,-99999.0,'11111222,11111222,99999999' 
TABS,ioos:station:wmo:42051:1,2009-01-02T06:00:00Z,29.6350,-93.6417,2.0,248.2200912,19.45901591,-99999.0,'11111222,11111222,99999999' 
TABS,ioos:station:wmo:42051:1,2009-01-02T06:30:00Z,29.6350,-93.6417,2.0,262.829887,20.67163516,-99999.0,'11111222,11111222,99999999' 
TABS,ioos:station:wmo:42051:1,2009-01-02T07:00:00Z,29.6350,-93.6417,2.0,259.9356843,22.54691997,-99999.0,'11111222,11111222,99999999' 
TABS,ioos:station:wmo:42051:1,2009-01-02T07:30:00Z,29.6350,-93.6417,2.0,250.248851,21.06948742,-99999.0,'11111222,11111222,99999999' 
TABS,ioos:station:wmo:42051:1,2009-01-02T08:00:00Z,29.6350,-93.6417,2.0,260.5501304,21.98836511,-99999.0,'11111222,11111222,99999999' 
TABS,ioos:station:wmo:42051:1,2009-01-02T08:30:00Z,29.6350,-93.6417,2.0,268.6673623,26.66720833,-99999.0,'11111222,11111222,99999999' 
TABS,ioos:station:wmo:42051:1,2009-01-02T09:00:00Z,29.6350,-93.6417,2.0,271.1962425,30.66667899,-99999.0,'11111222,11111222,99999999' 
TABS,ioos:station:wmo:42051:1,2009-01-02T09:30:00Z,29.6350,-93.6417,2.0,270.5908669,28.14149427,-99999.0,'11111222,11111222,99999999' 
TABS,ioos:station:wmo:42051:1,2009-01-02T10:00:00Z,29.6350,-93.6417,2.0,277.5352607,29.13154304,-99999.0,'11111222,11111222,99999999' 
TABS,ioos:station:wmo:42051:1,2009-01-02T10:30:00Z,29.6350,-93.6417,2.0,274.42888,29.52815605,-99999.0,'11111222,11111222,99999999' 
TABS,ioos:station:wmo:42051:1,2009-01-02T11:00:00Z,29.6350,-93.6417,2.0,272.1171609,29.23995212,-99999.0,'11111222,11111222,99999999' 
TABS,ioos:station:wmo:42051:1,2009-01-02T11:30:00Z,29.6350,-93.6417,2.0,276.4011973,26.10271442,-99999.0,'11111222,11111222,99999999' 
TABS,ioos:station:wmo:42051:1,2009-01-02T12:00:00Z,29.6350,-93.6417,2.0,273.3099901,24.25044536,-99999.0,'11111222,11111222,99999999' 
TABS,ioos:station:wmo:42051:1,2009-01-02T12:30:00Z,29.6350,-93.6417,2.0,279.8764265,26.4113858,-99999.0,'11111222,11111222,99999999' 
TABS,ioos:station:wmo:42051:1,2009-01-02T13:00:00Z,29.6350,-93.6417,2.0,276.5449642,26.93552487,-99999.0,'11111222,11111222,99999999' 
TABS,ioos:station:wmo:42051:1,2009-01-02T13:30:00Z,29.6350,-93.6417,2.0,279.7532063,23.02273007,-99999.0,'11111222,11111222,99999999' 
TABS,ioos:station:wmo:42051:1,2009-01-02T14:00:00Z,29.6350,-93.6417,2.0,276.2017643,23.69867507,-99999.0,'11111222,11111222,99999999' 
TABS,ioos:station:wmo:42051:1,2009-01-02T14:30:00Z,29.6350,-93.6417,2.0,270.3823862,22.50049999,-99999.0,'11111222,11111222,99999999' 
TABS,ioos:station:wmo:42051:1,2009-01-02T15:00:00Z,29.6350,-93.6417,2.0,270.10817,21.27003761,-99999.0,'11111222,11111222,99999999' 
TABS,ioos:station:wmo:42051:1,2009-01-02T15:30:00Z,29.6350,-93.6417,2.0,267.31973,20.5324548,-99999.0,'11111222,11111222,99999999' 
TABS,ioos:station:wmo:42051:1,2009-01-02T16:00:00Z,29.6350,-93.6417,2.0,267.1932154,21.44571985,-99999.0,'11111222,11111222,99999999' 
TABS,ioos:station:wmo:42051:1,2009-01-02T16:30:00Z,29.6350,-93.6417,2.0,266.9305206,19.7983964,-99999.0,'11111222,11111222,99999999' 
TABS,ioos:station:wmo:42051:1,2009-01-02T17:00:00Z,29.6350,-93.6417,2.0,261.0210891,20.24810115,-99999.0,'11111222,11111222,99999999' 
TABS,ioos:station:wmo:42051:1,2009-01-02T17:30:00Z,29.6350,-93.6417,2.0,261.5749079,18.42886052,-99999.0,'11111222,11111222,99999999' 
TABS,ioos:station:wmo:42051:1,2009-01-02T18:00:00Z,29.6350,-93.6417,2.0,264.9461871,18.39148716,-99999.0,'11111222,11111222,99999999' 
TABS,ioos:station:wmo:42051:1,2009-01-02T18:30:00Z,29.6350,-93.6417,2.0,260.0177731,17.76897296,-99999.0,'11111222,11111222,99999999' 
TABS,ioos:station:wmo:42051:1,2009-01-02T19:00:00Z,29.6350,-93.6417,2.0,253.4702772,18.73420668,-99999.0,'11111222,11111222,99999999' 
TABS,ioos:station:wmo:42051:1,2009-01-02T19:30:00Z,29.6350,-93.6417,2.0,269.9241239,22.78001975,-99999.0,'11111222,11111222,99999999' 
TABS,ioos:station:wmo:42051:1,2009-01-02T20:00:00Z,29.6350,-93.6417,2.0,271.8365708,19.3499354,-99999.0,'11111222,11111222,99999999' 
TABS,ioos:station:wmo:42051:1,2009-01-02T20:30:00Z,29.6350,-93.6417,2.0,287.6612258,20.83182421,-99999.0,'11111222,11111222,99999999' 
TABS,ioos:station:wmo:42051:1,2009-01-02T21:00:00Z,29.6350,-93.6417,2.0,296.6803564,24.52077079,-99999.0,'11111222,11111222,99999999' 
TABS,ioos:station:wmo:42051:1,2009-01-02T21:30:00Z,29.6350,-93.6417,2.0,286.0245751,20.97497795,-99999.0,'11111222,11111222,99999999' 
TABS,ioos:station:wmo:42051:1,2009-01-02T22:00:00Z,29.6350,-93.6417,2.0,287.0213408,25.75827052,-99999.0,'11111222,11111222,99999999' 
TABS,ioos:station:wmo:42051:1,2009-01-02T22:30:00Z,29.6350,-93.6417,2.0,295.4198525,25.2770924,-99999.0,'11111222,11111222,99999999' 
TABS,ioos:station:wmo:42051:1,2009-01-02T23:00:00Z,29.6350,-93.6417,2.0,291.3227916,25.98897074,-99999.0,'11111222,11111222,99999999' 
TABS,ioos:station:wmo:42051:1,2009-01-02T23:30:00Z,29.6350,-93.6417,2.0,290.1828728,28.72367839,-99999.0,'11111222,11111222,99999999' 
TABS,ioos:station:wmo:42051:1,2009-01-03T00:00:00Z,29.6350,-93.6417,2.0,280.6248761,29.18024674,-99999.0,'11111222,11111222,99999999' 
TABS,ioos:station:wmo:42051:1,2009-01-03T00:30:00Z,29.6350,-93.6417,2.0,283.0619415,29.51357993,-99999.0,'11111222,11111222,99999999' 
TABS,ioos:station:wmo:42051:1,2009-01-03T01:00:00Z,29.6350,-93.6417,2.0,285.4276199,26.27677682,-99999.0,'11111222,11111222,99999999' 
TABS,ioos:station:wmo:42051:1,2009-01-03T01:30:00Z,29.6350,-93.6417,2.0,279.1970553,25.52814917,-99999.0,'11111222,11111222,99999999' 
TABS,ioos:station:wmo:42051:1,2009-01-03T02:00:00Z,29.6350,-93.6417,2.0,280.4003032,22.10311517,-99999.0,'11111222,11111222,99999999' 
TABS,ioos:station:wmo:42051:1,2009-01-03T02:30:00Z,29.6350,-93.6417,2.0,267.6247347,23.65031289,-99999.0,'11111222,11111222,99999999' 
TABS,ioos:station:wmo:42051:1,2009-01-03T03:00:00Z,29.6350,-93.6417,2.0,268.1483564,20.43066323,-99999.0,'11111222,11111222,99999999' 
TABS,ioos:station:wmo:42051:1,2009-01-03T03:30:00Z,29.6350,-93.6417,2.0,253.8415822,22.20723531,-99999.0,'11111222,11111222,99999999' 
TABS,ioos:station:wmo:42051:1,2009-01-03T04:00:00Z,29.6350,-93.6417,2.0,260.8420934,18.85025464,-99999.0,'11111222,11111222,99999999' 
TABS,ioos:station:wmo:42051:1,2009-01-03T04:30:00Z,29.6350,-93.6417,2.0,266.3800068,19.00791677,-99999.0,'11111222,11111222,99999999' 
TABS,ioos:station:wmo:42051:1,2009-01-03T05:00:00Z,29.6350,-93.6417,2.0,262.7132905,22.4714619,-99999.0,'11111222,11111222,99999999' 
TABS,ioos:station:wmo:42051:1,2009-01-03T05:30:00Z,29.6350,-93.6417,2.0,258.6323514,21.56297985,-99999.0,'11111222,11111222,99999999' 
TABS,ioos:station:wmo:42051:1,2009-01-03T06:00:00Z,29.6350,-93.6417,2.0,256.662477,16.29960736,-99999.0,'11111222,11111222,99999999' 
TABS,ioos:station:wmo:42051:1,2009-01-03T06:30:00Z,29.6350,-93.6417,2.0,268.062035,14.78845496,-99999.0,'11111222,11111222,99999999' 
TABS,ioos:station:wmo:42051:1,2009-01-03T07:00:00Z,29.6350,-93.6417,2.0,267.5928519,25.24226614,-99999.0,'11111222,11111222,99999999' 
TABS,ioos:station:wmo:42051:1,2009-01-03T07:30:00Z,29.6350,-93.6417,2.0,263.2471422,26.70524293,-99999.0,'11111222,11111222,99999999' 
TABS,ioos:station:wmo:42051:1,2009-01-03T08:00:00Z,29.6350,-93.6417,2.0,273.9608716,29.68087937,-99999.0,'11111222,11111222,99999999' 
TABS,ioos:station:wmo:42051:1,2009-01-03T08:30:00Z,29.6350,-93.6417,2.0,278.2803575,32.98381573,-99999.0,'11111222,11111222,99999999' 
TABS,ioos:station:wmo:42051:1,2009-01-03T09:00:00Z,29.6350,-93.6417,2.0,285.0994255,34.12820827,-99999.0,'11111222,11111222,99999999' 
TABS,ioos:station:wmo:42051:1,2009-01-03T09:30:00Z,29.6350,-93.6417,2.0,277.0104174,29.66172618,-99999.0,'11111222,11111222,99999999' 
TABS,ioos:station:wmo:42051:1,2009-01-03T10:00:00Z,29.6350,-93.6417,2.0,272.8963391,27.31488239,-99999.0,'11111222,11111222,99999999' 
TABS,ioos:station:wmo:42051:1,2009-01-03T10:30:00Z,29.6350,-93.6417,2.0,287.4087982,31.41910884,-99999.0,'11111222,11111222,99999999' 
TABS,ioos:station:wmo:42051:1,2009-01-03T11:00:00Z,29.6350,-93.6417,2.0,272.3685863,29.52521634,-99999.0,'11111222,11111222,99999999' 
TABS,ioos:station:wmo:42051:1,2009-01-03T11:30:00Z,29.6350,-93.6417,2.0,276.5767632,31.34625496,-99999.0,'11111222,11111222,99999999' 
TABS,ioos:station:wmo:42051:1,2009-01-03T12:00:00Z,29.6350,-93.6417,2.0,277.3794808,30.21019695,-99999.0,'11111222,11111222,99999999' 
TABS,ioos:station:wmo:42051:1,2009-01-03T12:30:00Z,29.6350,-93.6417,2.0,281.3027461,29.64491525,-99999.0,'11111222,11111222,99999999' 
TABS,ioos:station:wmo:42051:1,2009-01-03T13:00:00Z,29.6350,-93.6417,2.0,278.3696815,29.47388166,-99999.0,'11111222,11111222,99999999' 
TABS,ioos:station:wmo:42051:1,2009-01-03T13:30:00Z,29.6350,-93.6417,2.0,278.4991827,29.23098527,-99999.0,'11111222,11111222,99999999' 
TABS,ioos:station:wmo:42051:1,2009-01-03T14:00:00Z,29.6350,-93.6417,2.0,275.0174735,30.41653498,-99999.0,'11111222,11111222,99999999' 
TABS,ioos:station:wmo:42051:1,2009-01-03T14:30:00Z,29.6350,-93.6417,2.0,279.0809359,27.8793992,-99999.0,'11111222,11111222,99999999' 
TABS,ioos:station:wmo:42051:1,2009-01-03T15:00:00Z,29.6350,-93.6417,2.0,278.4483286,28.04428641,-99999.0,'11111222,11111222,99999999' 
TABS,ioos:station:wmo:42051:1,2009-01-03T15:30:00Z,29.6350,-93.6417,2.0,278.8784467,27.08449741,-99999.0,'11111222,11111222,99999999' 
TABS,ioos:station:wmo:42051:1,2009-01-03T16:00:00Z,29.6350,-93.6417,2.0,276.0131086,24.34392327,-99999.0,'11111222,11111222,99999999' 
TABS,ioos:station:wmo:42051:1,2009-01-03T16:30:00Z,29.6350,-93.6417,2.0,273.4468364,21.45880938,-99999.0,'11111222,11111222,99999999' 
TABS,ioos:station:wmo:42051:1,2009-01-03T17:00:00Z,29.6350,-93.6417,2.0,289.8791667,21.58623636,-99999.0,'11111222,11111222,99999999' 
TABS,ioos:station:wmo:42051:1,2009-01-03T17:30:00Z,29.6350,-93.6417,2.0,291.7783528,18.16657645,-99999.0,'11111222,11111222,99999999' 
TABS,ioos:station:wmo:42051:1,2009-01-03T18:00:00Z,29.6350,-93.6417,2.0,293.6541186,18.84306769,-99999.0,'11111222,11111222,99999999' 
TABS,ioos:station:wmo:42051:1,2009-01-03T18:30:00Z,29.6350,-93.6417,2.0,256.8176414,15.12862849,-99999.0,'11111222,11111222,99999999' 
TABS,ioos:station:wmo:42051:1,2009-01-03T19:00:00Z,29.6350,-93.6417,2.0,290.3423335,16.91490467,-99999.0,'11111222,11111222,99999999' 
TABS,ioos:station:wmo:42051:1,2009-01-03T19:30:00Z,29.6350,-93.6417,2.0,293.5702635,19.85657574,-99999.0,'11111222,11111222,99999999' 
TABS,ioos:station:wmo:42051:1,2009-01-03T20:00:00Z,29.6350,-93.6417,2.0,268.9944954,15.39236824,-99999.0,'11111222,11111222,99999999' 
TABS,ioos:station:wmo:42051:1,2009-01-03T20:30:00Z,29.6350,-93.6417,2.0,270.2086416,16.51010902,-99999.0,'11111222,11111222,99999999' 
TABS,ioos:station:wmo:42051:1,2009-01-03T21:00:00Z,29.6350,-93.6417,2.0,275.9391262,17.4938875,-99999.0,'11111222,11111222,99999999' 
TABS,ioos:station:wmo:42051:1,2009-01-03T21:30:00Z,29.6350,-93.6417,2.0,242.0886498,21.7047921,-99999.0,'11111222,11111222,99999999' 
TABS,ioos:station:wmo:42051:1,2009-01-03T22:00:00Z,29.6350,-93.6417,2.0,270.1790042,19.25009351,-99999.0,'11111222,11111222,99999999' 
TABS,ioos:station:wmo:42051:1,2009-01-03T22:30:00Z,29.6350,-93.6417,2.0,268.6630268,18.4350156,-99999.0,'11111222,11111222,99999999' 
TABS,ioos:station:wmo:42051:1,2009-01-03T23:00:00Z,29.6350,-93.6417,2.0,264.3843272,16.14748587,-99999.0,'11111222,11111222,99999999' 
TABS,ioos:station:wmo:42051:1,2009-01-03T23:30:00Z,29.6350,-93.6417,2.0,253.540906,19.16531502,-99999.0,'11111222,11111222,99999999' 
TABS,ioos:station:wmo:42051:1,2009-01-04T00:00:00Z,29.6350,-93.6417,2.0,265.7007821,16.27578877,-99999.0,'11111222,11111222,99999999' 
TABS,ioos:station:wmo:42051:1,2009-01-04T00:30:00Z,29.6350,-93.6417,2.0,265.098615,17.32333686,-99999.0,'11111222,11111222,99999999' 
TABS,ioos:station:wmo:42051:1,2009-01-04T01:00:00Z,29.6350,-93.6417,2.0,271.8469639,17.37902471,-99999.0,'11111222,11111222,99999999' 
TABS,ioos:station:wmo:42051:1,2009-01-04T01:30:00Z,29.6350,-93.6417,2.0,265.902755,18.19649692,-99999.0,'11111222,11111222,99999999' 
TABS,ioos:station:wmo:42051:1,2009-01-04T02:00:00Z,29.6350,-93.6417,2.0,259.4915815,17.65610376,-99999.0,'11111222,11111222,99999999' 
TABS,ioos:station:wmo:42051:1,2009-01-04T02:30:00Z,29.6350,-93.6417,2.0,261.5872535,18.66077437,-99999.0,'11111222,11111222,99999999' 
TABS,ioos:station:wmo:42051:1,2009-01-04T03:00:00Z,29.6350,-93.6417,2.0,273.4258919,18.24259302,-99999.0,'11111222,11111222,99999999' 
TABS,ioos:station:wmo:42051:1,2009-01-04T03:30:00Z,29.6350,-93.6417,2.0,259.6037507,17.45655751,-99999.0,'11111222,11111222,99999999' 
TABS,ioos:station:wmo:42051:1,2009-01-04T04:00:00Z,29.6350,-93.6417,2.0,265.5985093,18.5045643,-99999.0,'11111222,11111222,99999999' 
TABS,ioos:station:wmo:42051:1,2009-01-04T04:30:00Z,29.6350,-93.6417,2.0,252.0296413,17.53540704,-99999.0,'11111222,11111222,99999999' 
TABS,ioos:station:wmo:42051:1,2009-01-04T05:00:00Z,29.6350,-93.6417,2.0,262.8619043,16.82035077,-99999.0,'11111222,11111222,99999999' 
TABS,ioos:station:wmo:42051:1,2009-01-04T05:30:00Z,29.6350,-93.6417,2.0,269.1458992,12.08134099,-99999.0,'11111222,11111222,99999999' 
TABS,ioos:station:wmo:42051:1,2009-01-04T06:00:00Z,29.6350,-93.6417,2.0,254.2160194,12.64683755,-99999.0,'11111222,11111222,99999999' 
TABS,ioos:station:wmo:42051:1,2009-01-04T06:30:00Z,29.6350,-93.6417,2.0,254.4733268,14.08395541,-99999.0,'11111222,11111222,99999999' 
TABS,ioos:station:wmo:42051:1,2009-01-04T07:00:00Z,29.6350,-93.6417,2.0,265.3327316,13.76563838,-99999.0,'11111222,11111222,99999999' 
TABS,ioos:station:wmo:42051:1,2009-01-04T07:30:00Z,29.6350,-93.6417,2.0,253.8228355,14.28561514,-99999.0,'11111222,11111222,99999999' 
TABS,ioos:station:wmo:42051:1,2009-01-04T08:00:00Z,29.6350,-93.6417,2.0,269.2432449,12.12105606,-99999.0,'11111222,11111222,99999999' 
TABS,ioos:station:wmo:42051:1,2009-01-04T08:30:00Z,29.6350,-93.6417,2.0,269.3558349,10.68067414,-99999.0,'11111222,11111222,99999999' 
TABS,ioos:station:wmo:42051:1,2009-01-04T09:00:00Z,29.6350,-93.6417,2.0,270.9980055,8.041218813,-99999.0,'11133222,11111222,99999999' 
TABS,ioos:station:wmo:42051:1,2009-01-04T09:30:00Z,29.6350,-93.6417,2.0,266.97866,7.400283778,-99999.0,'11133222,11111222,99999999' 
TABS,ioos:station:wmo:42051:1,2009-01-04T10:00:00Z,29.6350,-93.6417,2.0,287.0752107,4.529657824,-99999.0,'11133222,11111222,99999999' 
TABS,ioos:station:wmo:42051:1,2009-01-04T10:30:00Z,29.6350,-93.6417,2.0,288.8250869,4.64865572,-99999.0,'11133222,11111222,99999999' 
TABS,ioos:station:wmo:42051:1,2009-01-04T11:00:00Z,29.6350,-93.6417,2.0,294.6727082,6.228611402,-99999.0,'11133222,11111222,99999999' 
TABS,ioos:station:wmo:42051:1,2009-01-04T11:30:00Z,29.6350,-93.6417,2.0,294.3741511,6.082080236,-99999.0,'11133222,11111222,99999999' 
TABS,ioos:station:wmo:42051:1,2009-01-04T12:00:00Z,29.6350,-93.6417,2.0,293.7407593,11.52528091,-99999.0,'11111222,11111222,99999999' 
TABS,ioos:station:wmo:42051:1,2009-01-04T12:30:00Z,29.6350,-93.6417,2.0,304.4147155,19.74613127,-99999.0,'11111222,11111222,99999999' 
TABS,ioos:station:wmo:42051:1,2009-01-04T13:00:00Z,29.6350,-93.6417,2.0,289.8492178,21.14626445,-99999.0,'11111222,11111222,99999999' 
TABS,ioos:station:wmo:42051:1,2009-01-04T13:30:00Z,29.6350,-93.6417,2.0,288.0023703,18.83190113,-99999.0,'11111222,11111222,99999999' 
TABS,ioos:station:wmo:42051:1,2009-01-04T14:00:00Z,29.6350,-93.6417,2.0,295.6318383,21.68379349,-99999.0,'11111222,11111222,99999999' 
TABS,ioos:station:wmo:42051:1,2009-01-04T14:30:00Z,29.6350,-93.6417,2.0,285.099142,22.49662197,-99999.0,'11111222,11111222,99999999' 
TABS,ioos:station:wmo:42051:1,2009-01-04T15:00:00Z,29.6350,-93.6417,2.0,279.5644721,19.4402109,-99999.0,'11111222,11111222,99999999' 
TABS,ioos:station:wmo:42051:1,2009-01-04T15:30:00Z,29.6350,-93.6417,2.0,273.0540931,19.14718778,-99999.0,'11111222,11111222,99999999' 
TABS,ioos:station:wmo:42051:1,2009-01-04T16:00:00Z,29.6350,-93.6417,2.0,255.1987436,17.81097695,-99999.0,'11111222,11111222,99999999' 